• In Romania
  • List of Countries
  • For 7 days
  • Water Temperature
  • Satellite Maps
  • Weather Map
  • Weather Widgets
  • user-avatar
    Login

    Hourly Weather Sharkovo

    Today, 21 April, Saturday

    Time Temperature Precipitation Wind Pressure Humidity
    00:00 +10°C° 0 mm 3 mps 742 mmHg 79%
    01:00 +10°C° 0 mm 3 mps 741 mmHg 84%
    02:00 +10°C° 0 mm 4 mps 740 mmHg 89%
    03:00 +8°C° 0 mm 4 mps 740 mmHg 90%
    04:00 +8°C° 0 mm 4 mps 739 mmHg 91%
    05:00 +8°C° 0 mm 4 mps 738 mmHg 91%
    06:00 +10°C° 0 mm 4 mps 737 mmHg 85%
    07:00 +10°C° 0 mm 5 mps 736 mmHg 79%
    08:00 +13°C° 0 mm 5 mps 735 mmHg 73%
    09:00 +14°C° 0 mm 6 mps 734 mmHg 70%
    10:00 +15°C° 0 mm 6 mps 733 mmHg 66%
    11:00 +16°C° 0 mm 6 mps 732 mmHg 63%
    12:00 +16°C° 0.5 mm 7 mps 731 mmHg 61%
    13:00 +16°C° 0.5 mm 8 mps 731 mmHg 59%
    14:00 +16°C° 0.5 mm 9 mps 731 mmHg 57%
    15:00 +15°C° 0.1 mm 8 mps 731 mmHg 56%
    16:00 +12°C° 0.1 mm 8 mps 732 mmHg 56%
    17:00 +11°C° 0.1 mm 8 mps 732 mmHg 56%
    18:00 +10°C° 0 mm 7 mps 733 mmHg 60%
    19:00 +9°C° 0 mm 6 mps 733 mmHg 63%
    20:00 +7°C° 0 mm 5 mps 734 mmHg 67%
    21:00 +7°C° 0 mm 5 mps 734 mmHg 68%
    22:00 +7°C° 0 mm 5 mps 735 mmHg 70%
    23:00 +6°C° 0 mm 5 mps 735 mmHg 71%

    Tomorrow, 22 April, Sunday

    Time Temperature Precipitation Wind Pressure Humidity
    00:00 +6°C° 0 mm 5 mps 735 mmHg 72%
    01:00 +6°C° 0 mm 5 mps 735 mmHg 73%
    02:00 +5°C° 0 mm 5 mps 736 mmHg 73%
    03:00 +5°C° 0 mm 5 mps 736 mmHg 75%
    04:00 +5°C° 0 mm 5 mps 736 mmHg 76%
    05:00 +5°C° 0 mm 5 mps 736 mmHg 77%
    06:00 +5°C° 0.2 mm 5 mps 736 mmHg 77%
    07:00 +5°C° 0.2 mm 5 mps 736 mmHg 76%
    08:00 +5°C° 0.2 mm 5 mps 737 mmHg 76%
    09:00 +6°C° 0.2 mm 5 mps 737 mmHg 75%
    10:00 +6°C° 0.2 mm 5 mps 737 mmHg 74%
    11:00 +6°C° 0.2 mm 5 mps 738 mmHg 74%
    12:00 +6°C° 0.1 mm 5 mps 738 mmHg 71%
    13:00 +7°C° 0.1 mm 5 mps 738 mmHg 69%
    14:00 +7°C° 0.1 mm 5 mps 739 mmHg 66%
    15:00 +7°C° 0.1 mm 5 mps 739 mmHg 65%
    16:00 +7°C° 0.1 mm 5 mps 739 mmHg 65%
    17:00 +6°C° 0.1 mm 4 mps 740 mmHg 64%
    18:00 +5°C° 0 mm 3 mps 740 mmHg 69%
    19:00 +4°C° 0 mm 3 mps 741 mmHg 74%
    20:00 +3°C° 0 mm 2 mps 741 mmHg 79%
    21:00 +3°C° 0 mm 2 mps 741 mmHg 81%
    22:00 +2°C° 0 mm 2 mps 742 mmHg 83%
    23:00 +2°C° 0 mm 1 mps 742 mmHg 85%

    Day after tomorrow, 23 April, Monday

    Time Temperature Precipitation Wind Pressure Humidity
    00:00 +2°C° 0 mm 1 mps 743 mmHg 85%
    01:00 +1°C° 0 mm 1 mps 743 mmHg 86%
    02:00 0°C° 0 mm 1 mps 743 mmHg 86%
    03:00 0°C° 0 mm 1 mps 744 mmHg 85%
    04:00 0°C° 0 mm 1 mps 744 mmHg 83%
    05:00 -1°C° 0 mm 1 mps 744 mmHg 82%
    06:00 -1°C° 0 mm 2 mps 745 mmHg 71%
    07:00 +1°C° 0 mm 2 mps 745 mmHg 61%
    08:00 +3°C° 0 mm 2 mps 745 mmHg 50%
    09:00 +5°C° 0 mm 2 mps 745 mmHg 45%
    10:00 +6°C° 0 mm 2 mps 745 mmHg 39%
    11:00 +9°C° 0 mm 1 mps 745 mmHg 34%
    12:00 +9°C° 0 mm 1 mps 745 mmHg 33%
    13:00 +10°C° 0 mm 1 mps 745 mmHg 31%
    14:00 +11°C° 0 mm 1 mps 745 mmHg 30%
    15:00 +11°C° 0 mm 1 mps 745 mmHg 31%
    16:00 +10°C° 0 mm 1 mps 745 mmHg 32%
    17:00 +10°C° 0 mm 1 mps 744 mmHg 32%
    18:00 +8°C° 0 mm 1 mps 744 mmHg 38%
    19:00 +5°C° 0 mm 0 mps 744 mmHg 43%
    20:00 +3°C° 0 mm 0 mps 744 mmHg 49%
    21:00 +4°C° 0 mm 1 mps 744 mmHg 51%
    22:00 +3°C° 0 mm 1 mps 744 mmHg 53%
    23:00 +3°C° 0 mm 1 mps 744 mmHg 55%

    24 April, Tuesday

    Time Temperature Precipitation Wind Pressure Humidity
    00:00 +2°C° 0 mm 2 mps 743 mmHg 56%
    01:00 +2°C° 0 mm 2 mps 743 mmHg 57%
    02:00 +2°C° 0 mm 2 mps 743 mmHg 59%
    03:00 +2°C° 0 mm 2 mps 743 mmHg 59%
    04:00 +3°C° 0 mm 2 mps 742 mmHg 60%
    05:00 +2°C° 0 mm 3 mps 742 mmHg 61%
    06:00 +3°C° 0.2 mm 3 mps 741 mmHg 63%
    07:00 +3°C° 0.2 mm 3 mps 741 mmHg 65%
    08:00 +4°C° 0.2 mm 3 mps 741 mmHg 67%
    09:00 +5°C° 0.2 mm 4 mps 741 mmHg 70%
    10:00 +5°C° 0.2 mm 4 mps 740 mmHg 72%
    11:00 +6°C° 0.2 mm 4 mps 740 mmHg 75%
    12:00 +6°C° 0.2 mm 4 mps 740 mmHg 77%
    13:00 +6°C° 0.2 mm 4 mps 740 mmHg 80%
    14:00 +6°C° 0.2 mm 4 mps 739 mmHg 82%
    15:00 +7°C° 0.2 mm 3 mps 739 mmHg 84%
    16:00 +7°C° 0.2 mm 3 mps 739 mmHg 86%
    17:00 +7°C° 0.2 mm 3 mps 738 mmHg 88%
    18:00 +7°C° 0.1 mm 3 mps 738 mmHg 90%
    19:00 +7°C° 0.1 mm 3 mps 738 mmHg 92%
    20:00 +6°C° 0.1 mm 2 mps 738 mmHg 94%
    21:00 +6°C° 0.1 mm 2 mps 738 mmHg 94%
    22:00 +6°C° 0.1 mm 2 mps 738 mmHg 94%
    23:00 +6°C° 0.1 mm 2 mps 738 mmHg 94%

    25 April, Wednesday

    Time Temperature Precipitation Wind Pressure Humidity
    00:00 +6°C° 0 mm 2 mps 738 mmHg 95%
    01:00 +5°C° 0 mm 2 mps 738 mmHg 95%
    02:00 +4°C° 0 mm 2 mps 738 mmHg 95%
    03:00 +4°C° 0 mm 2 mps 737 mmHg 96%
    04:00 +4°C° 0 mm 2 mps 737 mmHg 96%
    05:00 +3°C° 0 mm 2 mps 737 mmHg 96%
    06:00 +3°C° 0.2 mm 3 mps 737 mmHg 93%
    07:00 +5°C° 0.2 mm 4 mps 736 mmHg 91%
    08:00 +6°C° 0.2 mm 4 mps 736 mmHg 88%
    09:00 +7°C° 0.2 mm 5 mps 736 mmHg 84%
    10:00 +8°C° 0.2 mm 5 mps 736 mmHg 81%
    11:00 +8°C° 0.2 mm 5 mps 736 mmHg 77%
    12:00 +9°C° 0.3 mm 5 mps 736 mmHg 71%
    13:00 +10°C° 0.3 mm 6 mps 736 mmHg 64%
    14:00 +11°C° 0.3 mm 6 mps 736 mmHg 57%
    15:00 +10°C° 0.3 mm 5 mps 735 mmHg 62%
    16:00 +9°C° 0.3 mm 5 mps 735 mmHg 67%
    17:00 +10°C° 0.3 mm 4 mps 735 mmHg 72%
    18:00 +9°C° 0.4 mm 3 mps 735 mmHg 78%
    19:00 +8°C° 0.4 mm 3 mps 735 mmHg 84%
    20:00 +7°C° 0.4 mm 2 mps 735 mmHg 91%
    21:00 +6°C° 0.1 mm 2 mps 735 mmHg 91%
    22:00 +6°C° 0.1 mm 2 mps 735 mmHg 91%
    23:00 +4°C° 0.1 mm 3 mps 735 mmHg 91%

    26 April, Thursday

    Time Temperature Precipitation Wind Pressure Humidity
    00:00 +4°C° 0 mm 3 mps 735 mmHg 92%
    01:00 +3°C° 0 mm 3 mps 736 mmHg 93%
    02:00 +3°C° 0 mm 3 mps 736 mmHg 93%
    03:00 +4°C° 0 mm 2 mps 736 mmHg 94%
    04:00 +3°C° 0 mm 2 mps 736 mmHg 95%
    05:00 +3°C° 0 mm 2 mps 736 mmHg 96%
    06:00 +3°C° 0 mm 3 mps 736 mmHg 91%
    07:00 +4°C° 0 mm 3 mps 736 mmHg 86%
    08:00 +7°C° 0 mm 3 mps 736 mmHg 81%
    09:00 +7°C° 0.1 mm 4 mps 736 mmHg 74%
    10:00 +10°C° 0.1 mm 4 mps 736 mmHg 67%
    11:00 +11°C° 0.1 mm 4 mps 736 mmHg 60%
    12:00 +11°C° 0.3 mm 4 mps 737 mmHg 58%
    13:00 +12°C° 0.3 mm 4 mps 737 mmHg 56%
    14:00 +12°C° 0.3 mm 5 mps 737 mmHg 55%
    15:00 +12°C° 0.3 mm 4 mps 737 mmHg 57%
    16:00 +11°C° 0.3 mm 4 mps 738 mmHg 60%
    17:00 +11°C° 0.3 mm 4 mps 738 mmHg 63%
    18:00 +10°C° 0.2 mm 3 mps 738 mmHg 69%
    19:00 +9°C° 0.2 mm 3 mps 739 mmHg 76%
    20:00 +7°C° 0.2 mm 3 mps 739 mmHg 82%
    21:00 +7°C° 0 mm 3 mps 740 mmHg 84%
    22:00 +5°C° 0 mm 3 mps 740 mmHg 86%
    23:00 +6°C° 0 mm 2 mps 740 mmHg 88%
    Show more